SVA209 LIRF-LGAV

Flight info

Callsign SVA209
Flight time N/A
Altitude 35000
Route PEPIX9B PEPIX L50 UNIXO DCT LAMEB DCT RUTOM DCT ARA UY144 NEMES NEMES1Q
Aircraft A320/M-SDE3FGHIRWY/LB1

Departure

Time N/A
Airport Rome–Fiumicino Leonardo da Vinci International Airport (LIRF)

Arrival

Time 2026-05-03 23:50
Airport Athens Eleftherios Venizelos International Airport (LGAV)
Time Latitude Longitude Altitude Speed Heading
2026-05-03 23:10 38.57289 18.75981 37184 ft 498 kts 101°
2026-05-03 23:10 38.55360 18.84475 37181 ft 497 kts 101°
2026-05-03 23:11 38.53433 18.92958 37173 ft 498 kts 101°
2026-05-03 23:11 38.51636 19.01414 37172 ft 493 kts 94°
2026-05-03 23:12 38.50457 19.10083 37167 ft 493 kts 94°
2026-05-03 23:12 38.49272 19.18697 37196 ft 493 kts 94°
2026-05-03 23:13 38.48079 19.27254 37181 ft 493 kts 94°
2026-05-03 23:13 38.46869 19.35865 37180 ft 493 kts 94°
2026-05-03 23:14 38.45659 19.44474 37182 ft 493 kts 94°
2026-05-03 23:14 38.44444 19.53083 37167 ft 492 kts 94°
2026-05-03 23:15 38.43222 19.61674 37166 ft 492 kts 94°
2026-05-03 23:15 38.41995 19.70262 37167 ft 493 kts 94°
2026-05-03 23:16 38.40756 19.78857 37171 ft 493 kts 94°
2026-05-03 23:16 38.39517 19.87443 37188 ft 493 kts 94°
2026-05-03 23:17 38.38271 19.96044 37170 ft 493 kts 94°
2026-05-03 23:17 38.37015 20.04645 37166 ft 494 kts 95°
2026-05-03 23:18 38.35755 20.13248 37170 ft 494 kts 95°
2026-05-03 23:18 38.34489 20.21861 37194 ft 495 kts 94°
2026-05-03 23:19 38.33430 20.29024 37188 ft 495 kts 95°
2026-05-03 23:19 38.32138 20.37643 37185 ft 495 kts 95°
2026-05-03 23:20 38.30835 20.46257 37181 ft 496 kts 95°
2026-05-03 23:20 38.29533 20.54873 37196 ft 496 kts 95°
2026-05-03 23:21 38.28233 20.63500 37192 ft 496 kts 95°
2026-05-03 23:21 38.26926 20.72113 37190 ft 496 kts 95°
2026-05-03 23:22 38.24950 20.85039 37212 ft 496 kts 95°
2026-05-03 23:22 38.23626 20.93662 37204 ft 497 kts 95°
2026-05-03 23:23 38.22294 21.02286 37199 ft 497 kts 95°
2026-05-03 23:23 38.20957 21.10907 37198 ft 497 kts 95°
2026-05-03 23:24 38.19607 21.19522 37202 ft 497 kts 95°
2026-05-03 23:24 38.18247 21.28136 37196 ft 497 kts 95°
2026-05-03 23:25 38.16880 21.36749 37194 ft 497 kts 95°
2026-05-03 23:25 38.14981 21.45248 37193 ft 507 kts 109°
2026-05-03 23:26 38.11874 21.53318 37193 ft 509 kts 112°
2026-05-03 23:26 38.08743 21.61387 37200 ft 509 kts 111°
2026-05-03 23:27 38.05614 21.69469 37207 ft 510 kts 111°
2026-05-03 23:27 38.02483 21.77538 37211 ft 510 kts 112°
2026-05-03 23:28 37.99331 21.85599 37246 ft 510 kts 112°
2026-05-03 23:28 37.96174 21.93645 36932 ft 509 kts 112°
2026-05-03 23:29 37.94600 21.97659 36677 ft 508 kts 112°
2026-05-03 23:29 37.93026 22.01669 36428 ft 509 kts 112°
2026-05-03 23:29 37.91446 22.05690 36177 ft 510 kts 112°
2026-05-03 23:29 37.89867 22.09706 35933 ft 510 kts 112°
2026-05-03 23:30 37.88282 22.13729 35703 ft 511 kts 112°
2026-05-03 23:30 37.86669 22.17809 35459 ft 512 kts 112°
2026-05-03 23:30 37.85071 22.21845 35219 ft 514 kts 112°
2026-05-03 23:30 37.83469 22.25891 34636 ft 516 kts 111°
2026-05-03 23:31 37.81845 22.30002 33378 ft 528 kts 111°
2026-05-03 23:31 37.80201 22.34148 32412 ft 529 kts 111°
2026-05-03 23:31 37.78534 22.38338 31371 ft 533 kts 111°
2026-05-03 23:31 37.76875 22.42486 29995 ft 529 kts 111°
2026-05-03 23:32 37.75216 22.46641 28657 ft 531 kts 111°
2026-05-03 23:32 37.73545 22.50826 27329 ft 537 kts 111°
2026-05-03 23:32 37.71855 22.55064 26104 ft 541 kts 111°
2026-05-03 23:32 37.70174 22.59287 25120 ft 537 kts 111°
2026-05-03 23:33 37.68560 22.63532 24071 ft 532 kts 109°
2026-05-03 23:33 37.67051 22.67704 22684 ft 516 kts 109°
2026-05-03 23:33 37.65625 22.71794 21441 ft 500 kts 109°
2026-05-03 23:33 37.64273 22.75723 20623 ft 478 kts 109°
2026-05-03 23:34 37.62960 22.79516 19689 ft 467 kts 110°
2026-05-03 23:34 37.61659 22.83230 18886 ft 458 kts 111°
2026-05-03 23:34 37.60370 22.86860 18043 ft 449 kts 111°
2026-05-03 23:34 37.59100 22.90394 16899 ft 437 kts 112°
2026-05-03 23:35 37.57850 22.93852 15719 ft 429 kts 112°
2026-05-03 23:35 37.56631 22.97214 15201 ft 408 kts 112°
2026-05-03 23:35 37.55488 23.00361 14839 ft 385 kts 111°
2026-05-03 23:35 37.54390 23.03388 14136 ft 376 kts 111°
2026-05-03 23:36 37.53319 23.06354 13284 ft 369 kts 111°
2026-05-03 23:36 37.52266 23.09274 12431 ft 363 kts 111°
2026-05-03 23:36 37.51230 23.12145 11597 ft 357 kts 112°
2026-05-03 23:36 37.50231 23.14986 11104 ft 353 kts 108°
2026-05-03 23:37 37.49561 23.17945 10856 ft 350 kts 97°
2026-05-03 23:37 37.49328 23.20965 10610 ft 344 kts 86°
2026-05-03 23:37 37.49500 23.23869 10355 ft 320 kts 76°
2026-05-03 23:37 37.50005 23.26493 10119 ft 298 kts 67°
2026-05-03 23:38 37.50782 23.28844 9985 ft 287 kts 58°
2026-05-03 23:38 37.51720 23.31047 9848 ft 285 kts 57°
2026-05-03 23:38 37.52654 23.33246 9715 ft 284 kts 58°
2026-05-03 23:38 37.53581 23.35441 9581 ft 283 kts 58°
2026-05-03 23:39 37.54502 23.37628 9444 ft 282 kts 58°
2026-05-03 23:39 37.55418 23.39809 9310 ft 281 kts 58°
2026-05-03 23:39 37.56329 23.41980 9176 ft 280 kts 58°
2026-05-03 23:39 37.57239 23.44146 9050 ft 280 kts 58°
2026-05-03 23:40 37.58156 23.46320 8923 ft 281 kts 58°
2026-05-03 23:40 37.59069 23.48501 8781 ft 281 kts 58°
2026-05-03 23:40 37.59974 23.50678 8655 ft 280 kts 58°
2026-05-03 23:40 37.60875 23.52849 8524 ft 278 kts 58°
2026-05-03 23:41 37.61772 23.55013 8121 ft 278 kts 58°
2026-05-03 23:41 37.62662 23.57158 7708 ft 276 kts 58°
2026-05-03 23:41 37.63550 23.59303 7370 ft 273 kts 58°
2026-05-03 23:41 37.64424 23.61417 6803 ft 272 kts 58°
2026-05-03 23:42 37.65293 23.63529 6229 ft 266 kts 59°
2026-05-03 23:42 37.66104 23.65508 6096 ft 243 kts 58°
2026-05-03 23:42 37.66847 23.67322 5924 ft 224 kts 58°
2026-05-03 23:42 37.67553 23.69039 5565 ft 217 kts 57°
2026-05-03 23:43 37.68226 23.70671 5435 ft 203 kts 57°
2026-05-03 23:43 37.68880 23.72185 5228 ft 191 kts 50°
2026-05-03 23:43 37.69734 23.73425 4914 ft 185 kts 37°
2026-05-03 23:43 37.70782 23.74345 4637 ft 176 kts 27°
2026-05-03 23:44 37.71813 23.75119 4343 ft 175 kts 28°
2026-05-03 23:44 37.72865 23.75921 4072 ft 172 kts 28°
2026-05-03 23:44 37.73878 23.76695 4032 ft 173 kts 28°
2026-05-03 23:44 37.74896 23.77571 3909 ft 175 kts 33°
2026-05-03 23:45 37.75850 23.78494 3783 ft 175 kts 33°
2026-05-03 23:45 37.76816 23.79428 3655 ft 174 kts 33°
2026-05-03 23:45 37.77778 23.80358 3527 ft 174 kts 33°
2026-05-03 23:45 37.78740 23.81287 3399 ft 174 kts 33°
2026-05-03 23:46 37.79694 23.82223 3304 ft 174 kts 35°
2026-05-03 23:46 37.80641 23.83178 3223 ft 175 kts 34°
2026-05-03 23:46 37.81618 23.84127 3019 ft 175 kts 33°
2026-05-03 23:46 37.82586 23.85052 2819 ft 175 kts 33°
2026-05-03 23:47 37.83560 23.85977 2576 ft 175 kts 33°
2026-05-03 23:47 37.84520 23.86888 2354 ft 169 kts 33°
2026-05-03 23:47 37.85433 23.87754 2114 ft 162 kts 33°
2026-05-03 23:47 37.86308 23.88584 1902 ft 151 kts 33°
2026-05-03 23:48 37.87105 23.89341 1722 ft 139 kts 33°
2026-05-03 23:48 37.87862 23.90059 1503 ft 134 kts 33°
2026-05-03 23:48 37.88613 23.90771 1324 ft 132 kts 33°
2026-05-03 23:48 37.89351 23.91471 1126 ft 133 kts 33°
2026-05-03 23:49 37.90099 23.92180 938 ft 135 kts 33°
2026-05-03 23:49 37.90856 23.92899 752 ft 137 kts 33°
2026-05-03 23:49 37.91615 23.93624 576 ft 136 kts 34°
2026-05-03 23:49 37.92372 23.94346 395 ft 136 kts 33°
2026-05-03 23:50 37.93101 23.95026 297 ft 115 kts 37°
2026-05-03 23:50 37.93462 23.95376 288 ft 82 kts 37°
2026-05-03 23:50 37.93840 23.95694 279 ft 16 kts 14°
2026-05-03 23:50 37.93862 23.95701 280 ft 4 kts 14°
2026-05-03 23:51 37.93946 23.95722 285 ft 12 kts
2026-05-03 23:51 37.94000 23.95730 291 ft 0 kts
2026-05-03 23:54 37.94003 23.95731 294 ft 4 kts
2026-05-03 23:54 37.94043 23.95687 300 ft 10 kts 278°
2026-05-03 23:54 37.94009 23.95622 298 ft 8 kts 218°
2026-05-03 23:55 37.93966 23.95581 301 ft 8 kts 217°
2026-05-03 23:55 37.93887 23.95506 300 ft 17 kts 216°
2026-05-03 23:55 37.93824 23.95447 299 ft 17 kts 216°
2026-05-03 23:55 37.93729 23.95357 297 ft 17 kts 219°
2026-05-03 23:56 37.93651 23.95272 300 ft 11 kts 238°
2026-05-03 23:56 37.93665 23.95197 301 ft 9 kts 307°
2026-05-03 23:56 37.93702 23.95134 301 ft 9 kts 307°
2026-05-03 23:56 37.93701 23.95060 300 ft 9 kts 232°
2026-05-03 23:57 37.93658 23.95016 302 ft 7 kts 217°
2026-05-03 23:57 37.93621 23.94980 301 ft 6 kts 218°
2026-05-03 23:57 37.93590 23.94950 301 ft 5 kts 217°
2026-05-03 23:57 37.93554 23.94916 302 ft 10 kts 217°
2026-05-03 23:58 37.93503 23.94867 302 ft 9 kts 217°
2026-05-03 23:58 37.93458 23.94824 301 ft 7 kts 217°
2026-05-03 23:58 37.93420 23.94787 301 ft 6 kts 217°
2026-05-03 23:58 37.93387 23.94756 301 ft 5 kts 216°
2026-05-03 23:59 37.93360 23.94731 301 ft 4 kts 216°
2026-05-03 23:59 37.93337 23.94710 301 ft 4 kts 216°
2026-05-03 23:59 37.93333 23.94690 301 ft 2 kts 269°
2026-05-03 23:59 37.93335 23.94680 301 ft 1 kts 284°
2026-05-04 00:00 37.93342 23.94665 301 ft 5 kts 303°
2026-05-04 00:00 37.93361 23.94633 302 ft 4 kts 307°
2026-05-04 00:00 37.93368 23.94619 302 ft 3 kts 306°
2026-05-04 00:00 37.93369 23.94618 303 ft 0 kts 306°